SV1DAY-13 Weather Reports


time (UTC)temp
C
wind
direction
speed
KPH
gust
KPH
rain 1hr
cm
rain 24hr
cm
rain mn
cm
humidity
%
barometer
mb
20260508101548 20 93 1.6 4.8 0.00 0.00 0.00 58 1018.4
20260508100036 20 139 1.6 4.8 0.00 0.00 0.00 52 1018.7
20260508094603 20 139 0.0 3.2 0.00 0.00 0.00 41 1018.6
20260508093048 20 139 1.6 6.4 0.00 0.00 0.00 48 1018.8
20260508091548 21 140 3.2 9.7 0.00 0.00 0.00 47 1018.7
20260508090105 20 106 3.2 9.7 0.00 0.00 0.00 46 1018.6
20260508084543 20 108 4.8 11.3 0.00 0.00 0.00 53 1018.5
20260508083039 20 112 4.8 9.7 0.00 0.00 0.00 56 1018.8
20260508081605 19 94 3.2 6.4 0.00 0.00 0.00 57 1018.8
20260508080055 18 120 3.2 9.7 0.00 0.00 0.00 60 1018.6
20260508074551 17 84 8.0 14.5 0.00 0.00 0.00 62 1018.1
20260508073103 18 90 11.3 16.1 0.00 0.00 0.00 61 1017.7
20260508071604 18 91 12.9 20.9 0.00 0.00 0.00 60 1017.4
20260508070054 18 77 16.1 24.1 0.00 0.00 0.00 61 1016.9
20260508064559 18 80 16.1 24.1 0.00 0.00 0.00 59 1016.6
20260508063053 18 92 16.1 24.1 0.00 0.00 0.00 48 1016.5
20260508061549 18 84 16.1 22.5 0.00 0.00 0.00 47 1016.5
20260508060058 18 88 19.3 29.0 0.00 0.00 0.00 50 1016.4
20260508054539 18 102 16.1 25.7 0.00 0.00 0.00 49 1016.4
20260508053156 18 100 19.3 27.4 0.00 0.00 0.00 49 1016.1
20260508051607 18 88 19.3 25.7 0.00 0.00 0.00 50 1016.0
20260508050046 18 103 16.1 22.5 0.00 0.00 0.00 49 1015.9
20260508044549 18 88 16.1 22.5 0.00 0.00 0.00 45 1016.0
20260508043042 18 66 14.5 20.9 0.00 0.00 0.00 41 1016.3
20260508041554 18 86 12.9 19.3 0.00 0.00 0.00 42 1016.2
20260508040055 18 135 6.4 19.3 0.00 0.00 0.00 40 1016.0
20260508034552 18 78 11.3 16.1 0.00 0.00 0.00 38 1016.0
20260508033054 18 80 9.7 14.5 0.00 0.00 0.00 38 1016.0
20260508031559 18 98 6.4 11.3 0.00 0.00 0.00 38 1016.4
20260508030036 18 78 8.0 14.5 0.00 0.03 0.00 38 1016.0
20260508024615 18 82 9.7 14.5 0.00 0.03 0.00 38 1016.2
20260508023050 18 91 4.8 11.3 0.00 0.03 0.00 38 1016.3
20260508021550 18 89 6.4 12.9 0.00 0.03 0.00 39 1016.3
20260508020049 18 87 8.0 12.9 0.00 0.03 0.00 37 1016.4
20260508014559 18 93 9.7 14.5 0.00 0.03 0.00 38 1016.3
20260508013053 18 89 8.0 11.3 0.00 0.03 0.00 37 1016.5
20260508011554 18 76 8.0 11.3 0.00 0.03 0.00 36 1016.6
20260508010051 19 107 6.4 9.7 0.00 0.03 0.00 35 1016.9
20260508004550 19 102 6.4 11.3 0.00 0.03 0.00 34 1016.9
20260508003042 19 93 6.4 11.3 0.00 0.03 0.00 33 1016.9
20260508001554 19 96 6.4 11.3 0.00 0.03 0.00 33 1016.9
20260508000049 18 87 3.2 12.9 0.00 0.03 0.00 33 1017.0
20260507234555 18 93 8.0 14.5 0.00 0.03 0.00 32 1017.0
20260507233048 18 88 9.7 12.9 0.00 0.03 0.00 36 1017.1
20260507231502 18 93 9.7 14.5 0.00 0.03 0.00 36 1017.3
20260507230040 18 88 8.0 12.9 0.00 0.03 0.00 37 1017.7
20260507224556 19 86 8.0 12.9 0.00 0.03 0.00 39 1017.7
20260507223050 19 86 9.7 14.5 0.00 0.03 0.00 38 1017.7
20260507221547 19 90 8.0 11.3 0.00 0.03 0.00 37 1017.4
20260507220042 20 88 6.4 9.7 0.00 0.03 0.00 35 1017.5
20260507214557 20 80 4.8 6.4 0.00 0.03 0.00 33 1017.6
20260507213154 19 89 4.8 9.7 0.00 0.03 0.00 34 1017.6
20260507211550 19 86 3.2 6.4 0.00 0.03 0.00 36 1017.7
20260507210055 19 84 4.8 8.0 0.00 0.03 0.03 38 1017.6
20260507204540 20 86 3.2 6.4 0.00 0.03 0.03 46 1017.6
20260507203107 19 79 3.2 8.0 0.00 0.03 0.03 46 1017.4
20260507201543 19 94 6.4 9.7 0.00 0.03 0.03 42 1017.6
20260507200037 19 9 1.6 6.4 0.00 0.03 0.03 39 1017.6
20260507194617 19 9 0.0 0.0 0.00 0.03 0.03 41 1017.8
20260507193058 19 9 0.0 4.8 0.00 0.03 0.03 37 1017.8
20260507191548 18 9 1.6 6.4 0.00 0.03 0.03 47 1018.1
20260507190046 18 82 1.6 9.7 0.00 0.03 0.03 47 1017.8
20260507184543 18 89 4.8 9.7 0.00 0.03 0.03 47 1017.9
20260507183058 18 86 3.2 6.4 0.00 0.03 0.03 48 1017.8
20260507181549 18 86 3.2 6.4 0.00 0.03 0.03 50 1017.8
20260507180048 18 86 4.8 6.4 0.00 0.03 0.03 50 1017.7
20260507174549 18 86 3.2 6.4 0.00 0.03 0.03 53 1017.5
20260507173115 18 86 3.2 9.7 0.00 0.03 0.03 49 1017.6
20260507171543 18 82 8.0 12.9 0.00 0.03 0.03 54 1017.3
20260507170056 18 92 4.8 9.7 0.00 0.03 0.03 58 1017.3
20260507164551 18 92 6.4 9.7 0.00 0.03 0.03 56 1017.2
20260507163046 18 92 4.8 9.7 0.00 0.03 0.03 51 1017.3
20260507161549 18 92 3.2 6.4 0.00 0.03 0.03 50 1017.3
20260507160041 18 92 3.2 9.7 0.00 0.03 0.03 51 1017.2
20260507154554 18 109 8.0 12.9 0.00 0.03 0.03 50 1017.2
20260507153058 19 96 4.8 6.4 0.00 0.03 0.03 46 1017.4
20260507151546 20 96 3.2 4.8 0.00 0.03 0.03 40 1017.3
20260507150043 20 102 4.8 6.4 0.00 0.03 0.03 44 1017.1
20260507144543 20 93 3.2 4.8 0.00 0.03 0.03 42 1017.4
20260507143054 20 93 3.2 6.4 0.00 0.03 0.03 46 1017.2
20260507141559 19 111 3.2 6.4 0.00 0.03 0.03 57 1017.3
20260507140051 19 127 1.6 4.8 0.00 0.03 0.03 59 1017.8
20260507134553 20 129 4.8 11.3 0.00 0.03 0.03 56 1017.8
20260507133116 20 122 6.4 12.9 0.00 0.03 0.03 53 1017.1
20260507131546 20 111 8.0 11.3 0.00 0.03 0.03 44 1017.6
20260507130038 20 112 8.0 12.9 0.00 0.03 0.03 52 1017.6
20260507124653 20 109 8.0 12.9 0.00 0.03 0.03 53 1017.5
20260507123050 20 104 9.7 16.1 0.00 0.03 0.03 47 1017.9
20260507121544 20 111 11.3 17.7 0.00 0.03 0.03 54 1018.0
20260507120038 20 117 11.3 17.7 0.00 0.03 0.03 54 1017.8
20260507114610 18 114 11.3 16.1 0.00 0.03 0.03 58 1017.8
20260507113054 17 89 11.3 16.1 0.00 0.03 0.03 61 1017.8
20260507111608 17 98 9.7 16.1 0.00 0.03 0.03 62 1017.9
20260507110043 17 109 9.7 16.1 0.00 0.03 0.03 62 1017.8
20260507104543 17 111 12.9 16.1 0.00 0.03 0.03 65 1017.8
20260507103044 17 109 11.3 16.1 0.00 0.03 0.03 64 1018.0